FW0532 Weather Reports


Display with metric or nautical units.
time (UTC)temp
F
wind
direction
speed
MPH
gust
MPH
rain 1hr
in
rain 24hr
in
rain mn
in
humidity
%
barometer
mb
20260505055816 65 233 6.0 17.0 0.00 0.00 0.00 62 1003.7
20260505055316 65 183 10.0 19.0 0.00 0.00 0.00 62 1003.5
20260505054816 65 265 15.0 19.0 0.00 0.00 0.00 62 1003.6
20260505054316 65 209 19.0 19.0 0.00 0.00 0.00 62 1003.4
20260505053816 65 214 6.0 18.0 0.00 0.00 0.00 62 1003.4
20260505053316 65 224 9.0 18.0 0.00 0.00 0.00 62 1003.4
20260505052315 65 222 7.0 18.0 0.00 0.00 0.00 62 1003.2
20260505051815 65 199 16.0 18.0 0.00 0.00 0.00 62 1003.2
20260505051315 65 207 11.0 18.0 0.00 0.00 0.00 63 1003.2
20260505050315 65 217 6.0 16.0 0.00 0.00 0.00 63 1003.2
20260505035813 67 182 14.0 16.0 0.00 0.00 0.00 61 1003.9
20260505035313 67 213 11.0 16.0 0.00 0.00 0.00 61 1003.9
20260505034312 67 219 9.0 16.0 0.00 0.00 0.00 61 1003.9
20260505032811 67 200 9.0 15.0 0.00 0.00 0.00 61 1004.0
20260505031811 67 182 5.0 15.0 0.00 0.00 0.00 61 1003.8
20260505031312 67 224 8.0 15.0 0.00 0.00 0.00 61 1003.9
20260505030811 67 213 7.0 15.0 0.00 0.00 0.00 61 1003.9
20260505030311 67 200 9.0 15.0 0.00 0.00 0.00 61 1004.1
20260505025811 67 219 11.0 12.0 0.00 0.00 0.00 62 1004.0
20260505025311 67 201 8.0 14.0 0.00 0.00 0.00 62 1003.9
20260505024810 67 221 4.0 14.0 0.00 0.00 0.00 61 1003.9
20260505024311 67 246 5.0 14.0 0.00 0.00 0.00 62 1003.9
20260505023810 66 221 9.0 11.0 0.00 0.00 0.00 62 1003.7
20260505023311 66 248 6.0 11.0 0.00 0.00 0.00 62 1003.6
20260505022810 66 180 5.0 10.0 0.00 0.00 0.00 62 1003.6
20260505022310 66 189 5.0 10.0 0.00 0.00 0.00 63 1003.5
20260505021810 66 236 4.0 6.0 0.00 0.00 0.00 63 1003.5
20260505021309 65 224 3.0 6.0 0.00 0.00 0.00 63 1003.4
20260505020309 66 200 2.0 6.0 0.00 0.00 0.00 62 1003.3
20260505015809 66 203 3.0 5.0 0.00 0.00 0.00 61 1003.1
20260505014809 66 179 3.0 6.0 0.00 0.00 0.00 61 1003.2
20260505014308 67 181 3.0 7.0 0.00 0.00 0.00 60 1003.2
20260505013808 67 230 3.0 10.0 0.00 0.00 0.00 60 1003.1
20260505013308 67 228 5.0 10.0 0.00 0.00 0.00 59 1003.1
20260505012808 67 204 5.0 10.0 0.00 0.00 0.00 59 1003.1
20260505012308 68 233 5.0 10.0 0.00 0.00 0.00 59 1003.3
20260505011808 68 202 8.0 14.0 0.00 0.00 0.00 58 1003.1
20260505011307 68 202 7.0 14.0 0.00 0.00 0.00 58 1003.0
20260505010807 69 196 5.0 13.0 0.00 0.00 0.00 58 1003.0
20260505010307 69 239 9.0 13.0 0.00 0.00 0.00 57 1002.9
20260505005307 68 211 10.0 13.0 0.00 0.00 0.00 59 1002.7
20260505004807 68 212 11.0 12.0 0.00 0.00 0.00 59 1002.6
20260505004307 68 201 4.0 10.0 0.00 0.00 0.00 59 1002.7
20260505003807 69 198 3.0 10.0 0.00 0.00 0.00 59 1002.7
20260505003306 69 193 5.0 10.0 0.00 0.00 0.00 58 1002.7
20260505002306 69 221 2.0 9.0 0.00 0.00 0.00 57 1002.6
20260505001806 70 161 5.0 9.0 0.00 0.00 0.00 57 1002.7
20260505001306 70 200 3.0 12.0 0.00 0.00 0.00 57 1002.7
20260505000806 70 202 5.0 12.0 0.00 0.00 0.00 56 1002.7
20260505000306 70 203 6.0 10.0 0.00 0.00 0.00 56 1002.9
20260504235805 70 171 2.0 12.0 0.00 0.00 0.00 57 1002.8
20260504234805 70 216 6.0 17.0 0.00 0.00 0.00 55 1003.0
20260504234305 71 224 10.0 17.0 0.00 0.00 0.00 55 1003.3
20260504233805 71 210 5.0 16.0 0.00 0.00 0.00 55 1003.3
20260504232804 72 202 10.0 19.0 0.00 0.00 0.00 54 1003.3
20260504231804 72 217 10.0 15.0 0.00 0.00 0.00 54 1003.6
20260504231304 72 225 10.0 15.0 0.00 0.00 0.00 53 1003.6
20260504230804 72 189 7.0 15.0 0.00 0.00 0.00 54 1003.6
20260504230304 72 232 3.0 15.0 0.00 0.00 0.00 52 1003.6
20260504225304 72 180 6.0 17.0 0.00 0.00 0.00 53 1003.7
20260504224803 72 190 6.0 17.0 0.00 0.00 0.00 53 1003.6
20260504224303 72 188 11.0 17.0 0.00 0.00 0.00 52 1003.7
20260504223803 72 209 3.0 15.0 0.00 0.00 0.00 54 1003.7
20260504223333 72 221 6.0 19.0 0.00 0.00 0.00 51 1003.8
20260504222832 72 186 11.0 19.0 0.00 0.00 0.00 52 1003.9
20260504222333 72 187 11.0 19.0 0.00 0.00 0.00 53 1003.8
20260504221832 71 228 11.0 19.0 0.00 0.00 0.00 54 1003.6
20260504221332 71 205 18.0 21.0 0.00 0.00 0.00 53 1003.6
20260504220832 71 231 10.0 21.0 0.00 0.00 0.00 53 1003.7
20260504220332 71 257 10.0 21.0 0.00 0.00 0.00 55 1003.8
20260504215832 71 219 17.0 21.0 0.00 0.00 0.00 54 1003.7
20260504215332 70 211 10.0 23.0 0.00 0.00 0.00 55 1003.8
20260504214831 70 201 12.0 23.0 0.00 0.00 0.00 55 1003.9
20260504214332 70 200 14.0 23.0 0.00 0.00 0.00 56 1003.9
20260504213831 71 238 7.0 24.0 0.00 0.00 0.00 54 1004.0
20260504213331 71 194 5.0 24.0 0.00 0.00 0.00 53 1004.2
20260504212830 72 196 15.0 24.0 0.00 0.00 0.00 52 1004.0
20260504212331 73 211 7.0 23.0 0.00 0.00 0.00 46 1004.0
20260504211830 73 191 5.0 23.0 0.00 0.01 0.00 43 1003.9
20260504211331 74 208 12.0 19.0 0.00 0.01 0.00 44 1003.9
20260504210830 74 183 5.0 16.0 0.00 0.01 0.00 45 1003.8
20260504210330 73 221 3.0 16.0 0.00 0.01 0.00 45 1003.6
20260504205830 73 248 2.0 15.0 0.00 0.01 0.00 47 1003.7
20260504205330 73 238 4.0 16.0 0.00 0.01 0.00 48 1003.9
20260504204329 73 183 14.0 19.0 0.00 0.01 0.00 51 1004.2
20260504203829 72 231 6.0 19.0 0.00 0.01 0.00 52 1004.2
20260504203329 72 202 6.0 25.0 0.00 0.01 0.00 54 1004.4
20260504202829 71 259 15.0 25.0 0.00 0.01 0.00 53 1004.3
20260504202328 72 180 3.0 20.0 0.00 0.01 0.00 51 1004.4
20260504201829 72 268 3.0 20.0 0.00 0.01 0.00 52 1004.7
20260504201329 72 225 5.0 20.0 0.00 0.01 0.00 51 1004.6
20260504200328 71 262 4.0 21.0 0.00 0.01 0.00 55 1005.0
20260504195828 70 198 4.0 25.0 0.00 0.01 0.00 55 1005.1
20260504195328 70 235 10.0 26.0 0.00 0.01 0.00 56 1005.2
20260504194327 71 198 23.0 26.0 0.00 0.01 0.00 55 1005.3
20260504193327 73 204 10.0 32.0 0.00 0.01 0.00 52 1005.6
20260504192327 72 195 20.0 26.0 0.00 0.01 0.00 53 1005.4
20260504191826 72 219 11.0 25.0 0.00 0.01 0.00 52 1005.3
20260504191326 72 217 23.0 25.0 0.00 0.01 0.00 54 1005.2
20260504190827 72 296 9.0 25.0 0.00 0.01 0.00 54 1005.1
20260504190326 73 178 10.0 21.0 0.00 0.01 0.00 55 1005.5
20260504185826 72 335 11.0 22.0 0.00 0.01 0.00 56 1005.6
20260504185326 72 230 10.0 23.0 0.00 0.01 0.00 55 1005.8
20260504183825 72 231 18.0 32.0 0.00 0.01 0.00 53 1005.7
20260504183326 72 182 15.0 32.0 0.00 0.01 0.00 54 1005.8
20260504182825 73 238 17.0 22.0 0.00 0.01 0.00 54 1005.7
20260504182325 72 176 6.0 20.0 0.00 0.01 0.00 54 1005.8
20260504181825 72 251 10.0 18.0 0.00 0.01 0.00 54 1005.8
20260504181325 72 205 7.0 24.0 0.00 0.01 0.00 54 1005.7
20260504180825 72 227 6.0 26.0 0.00 0.01 0.00 54 1005.5
20260504180324 73 219 18.0 26.0 0.00 0.01 0.00 52 1005.6
20260504175825 72 271 14.0 25.0 0.00 0.01 0.00 53 1005.2
20260504174824 73 161 12.0 29.0 0.00 0.01 0.00 54 1005.3
20260504173824 74 208 10.0 22.0 0.00 0.01 0.00 53 1005.2
20260504173323 73 192 11.0 24.0 0.00 0.01 0.00 53 1005.4
20260504172823 73 159 14.0 24.0 0.00 0.01 0.00 53 1005.3
20260504171823 72 198 5.0 24.0 0.00 0.01 0.00 53 1005.3
20260504170824 72 205 12.0 27.0 0.00 0.01 0.00 52 1005.4
20260504170322 72 211 17.0 27.0 0.00 0.01 0.00 53 1005.5
20260504160320 69 212 4.0 19.0 0.00 0.01 0.00 57 1006.1
20260504150819 65 205 7.0 22.0 0.00 0.01 0.00 63 1006.5
20260504150319 65 213 7.0 22.0 0.00 0.01 0.00 66 1006.5
20260504141317 61 222 14.0 19.0 0.00 0.01 0.00 66 1006.8
20260504140317 61 209 9.0 18.0 0.00 0.01 0.00 66 1006.9
20260504130815 57 206 9.0 16.0 0.00 0.01 0.00 70 1007.1
20260504130315 57 215 10.0 16.0 0.00 0.01 0.00 69 1007.1
20260504120313 53 200 6.0 12.0 0.00 0.01 0.00 71 1006.9
20260504110311 50 225 5.0 12.0 0.00 0.01 0.00 72 1006.5
20260504100310 49 189 7.0 10.0 0.00 0.01 0.00 73 1007.0
20260504081807 51 234 4.0 13.0 0.00 0.01 0.00 70 1007.8
20260504080806 51 217 6.0 13.0 0.00 0.01 0.00 70 1007.9
20260504080306 51 208 5.0 15.0 0.00 0.01 0.00 69 1007.9
20260504070304 52 215 11.0 14.0 0.00 0.01 0.00 67 1008.5